SAOCOM 1A

Last updated on Mon Sep 21 2026 00:02:09 GMT+0000 (Coordinated Universal Time)

1 43641U 18076A 26263.59597735 -.00000049 00000+0 34478-6 0 9994 2 43641 97.8898 88.9753 0001403 83.5469 276.5904 14.82146833430237
UTC large
Height (km)
Speed (km/s)
/
Latitude / Longitude
Inclination (degrees)
Orbital Period (minutes)
Azimuth
Elevation
Range (km)
Doppler Factor

Next 0 passes for location: London (51.5072 / 0.1276)

No passes found over London.
SAOCOM 1A